Lake Berryessa Weather Center

Moon Phase Calendar



Lake Berryessa Water Level
Online Cameras

 


      

Current Conditions in Redbud Park (historical)
6/23/2024 11:25:08 PM

65°F
Feels Like 65
Clear
Humidity
69%
Pressure
29.85"
Wind
4.9 mph (WSW)
Dew Point
55°F
UV Index
0/10 (Low)
Visibility
6 mi

Hourly Forecast

Date & Time Sun, Jun 23
11:00 PM
Mon, Jun 24
12:00 AM
Mon, Jun 24
1:00 AM
Mon, Jun 24
2:00 AM
Mon, Jun 24
3:00 AM
Mon, Jun 24
4:00 AM
Mon, Jun 24
5:00 AM
Mon, Jun 24
6:00 AM
Mon, Jun 24
7:00 AM
Mon, Jun 24
8:00 AM
Mon, Jun 24
9:00 AM
Mon, Jun 24
10:00 AM
Mon, Jun 24
11:00 AM
Mon, Jun 24
12:00 PM
Mon, Jun 24
1:00 PM
Mon, Jun 24
2:00 PM
Mon, Jun 24
3:00 PM
Mon, Jun 24
4:00 PM
Mon, Jun 24
5:00 PM
Mon, Jun 24
6:00 PM
Mon, Jun 24
7:00 PM
Mon, Jun 24
8:00 PM
Mon, Jun 24
9:00 PM
Mon, Jun 24
10:00 PM
Mon, Jun 24
11:00 PM
Tue, Jun 25
12:00 AM
Tue, Jun 25
1:00 AM
Tue, Jun 25
2:00 AM
Tue, Jun 25
3:00 AM
Tue, Jun 25
4:00 AM
Tue, Jun 25
5:00 AM
Tue, Jun 25
6:00 AM
Tue, Jun 25
7:00 AM
Tue, Jun 25
8:00 AM
Tue, Jun 25
9:00 AM
Tue, Jun 25
10:00 AM
Tue, Jun 25
11:00 AM
Tue, Jun 25
12:00 PM
Tue, Jun 25
1:00 PM
Tue, Jun 25
2:00 PM
Tue, Jun 25
3:00 PM
Tue, Jun 25
4:00 PM
Tue, Jun 25
5:00 PM
Tue, Jun 25
6:00 PM
Tue, Jun 25
7:00 PM
Tue, Jun 25
8:00 PM
Tue, Jun 25
9:00 PM
Tue, Jun 25
10:00 PM
Condition
Clear

Clear

Clear

Clear

Clear

Clear

Clear

Clear

Clear

Clear

Clear

Clear

Clear

Clear

Clear

Clear

Clear

Clear

Clear

Clear

Clear

Clear

Clear

Clear

Clear

Clear

Clouds

Clouds

Clouds

Clouds

Clouds

Clouds

Clouds

Clouds

Clouds

Clouds

Clouds

Clouds

Clouds

Clouds

Clouds

Clouds

Clouds

Clouds

Clouds

Clouds

Clouds

Clouds
Temperature 65°F65°F63°F62°F60°F58°F57°F57°F63°F71°F79°F86°F91°F95°F97°F98°F99°F98°F95°F92°F88°F78°F68°F64°F62°F61°F60°F60°F59°F59°F59°F60°F65°F74°F81°F82°F83°F91°F95°F97°F97°F90°F88°F86°F83°F78°F73°F71°F
Feels Like 65°F64°F63°F61°F59°F57°F56°F56°F61°F70°F79°F83°F87°F90°F92°F93°F94°F92°F90°F88°F84°F76°F66°F62°F60°F58°F58°F58°F57°F57°F56°F57°F63°F73°F79°F80°F80°F87°F90°F92°F92°F86°F84°F82°F81°F77°F72°F69°F
Cloudiness 0%0%0%0%0%0%0%0%0%0%0%0%0%0%0%0%0%0%0%0%0%0%0%1%1%8%12%14%13%11%11%64%76%51%59%67%73%68%72%82%86%89%91%100%100%100%100%100%
Visibility 6 mi6 mi6 mi6 mi6 mi6 mi6 mi6 mi6 mi6 mi6 mi6 mi6 mi6 mi6 mi6 mi6 mi6 mi6 mi6 mi6 mi6 mi6 mi6 mi6 mi6 mi6 mi6 mi6 mi6 mi6 mi6 mi6 mi6 mi6 mi6 mi6 mi6 mi6 mi6 mi6 mi6 mi6 mi6 mi6 mi6 mi6 mi6 mi
Precipitation 0%0%0%0%0%0%0%0%0%0%0%0%0%0%0%0%0%0%0%0%0%0%0%0%0%0%0%0%0%0%0%0%0%0%0%0%0%0%0%0%0%0%0%0%0%0%0%0%
Humidity 69%67%67%67%68%68%68%67%56%40%30%22%15%11%9%9%10%10%10%9%11%22%31%39%42%42%41%43%45%44%44%41%35%24%20%20%20%16%13%11%11%17%18%20%23%28%33%36%
Dew Point 55°F53°F52°F51°F49°F45°F45°F45°F45°F45°F45°F43°F37°F32°F29°F29°F31°F31°F28°F25°F26°F34°F35°F37°F37°F36°F36°F36°F37°F36°F36°F35°F36°F35°F36°F36°F36°F37°F35°F34°F35°F38°F37°F38°F40°F41°F41°F41°F
Pressure 29.85"29.85"29.85"29.85"29.85"29.85"29.85"29.88"29.88"29.88"29.88"29.85"29.85"29.85"29.83"29.8"29.8"29.8"29.8"29.77"29.8"29.8"29.83"29.83"29.85"29.85"29.85"29.85"29.85"29.85"29.85"29.85"29.85"29.85"29.88"29.88"29.88"29.88"29.85"29.85"29.83"29.83"29.83"29.83"29.83"29.85"29.85"29.88"
Wind Speed 4.9 mph5 mph5.1 mph4.8 mph4.8 mph4.7 mph4.5 mph4.3 mph3.5 mph3.2 mph2.9 mph3.2 mph4.1 mph5.4 mph7.6 mph10.7 mph11.9 mph12.5 mph12.2 mph9.8 mph6.4 mph5.3 mph5.3 mph5.4 mph5.4 mph5.3 mph4.7 mph4.6 mph4.4 mph4.5 mph4.3 mph4.1 mph3.2 mph2.2 mph2.1 mph1.7 mph4.6 mph4.1 mph5.5 mph10.2 mph12.4 mph10 mph7.5 mph5.9 mph5.5 mph4.8 mph4.9 mph4.8 mph
Wind
Direction
240°
WSW
244°
WSW
243°
WSW
245°
WSW
246°
WSW
245°
WSW
246°
WSW
246°
WSW
246°
WSW
242°
WSW
224°
SW
209°
SSW
200°
SSW
201°
SSW
205°
SSW
212°
SSW
215°
SW
216°
SW
216°
SW
220°
SW
216°
SW
219°
SW
229°
SW
236°
SW
248°
WSW
253°
WSW
250°
WSW
245°
WSW
251°
WSW
249°
WSW
259°
W
250°
WSW
275°
W
239°
WSW
218°
SW
220°
SW
199°
SSW
214°
SW
205°
SSW
212°
SSW
220°
SW
215°
SW
214°
SW
206°
SSW
213°
SSW
221°
SW
230°
SW
237°
WSW

Daily Forecast

Date High Low Precip. Humidity
Today
Jun 23

Clear
100 °F
62 °F
0%
13%
Monday
Jun 24

Clear
99 °F
57 °F
0%
9%
Tuesday
Jun 25

Clouds
97 °F
59 °F
0%
13%
Wednesday
Jun 26

Clear
93 °F
56 °F
0%
14%
Thursday
Jun 27

Clear
91 °F
50 °F
0%
16%
Friday
Jun 28

Clear
100 °F
57 °F
0%
11%
Saturday
Jun 29

Clear
97 °F
55 °F
0%
13%
Sunday
Jun 30

Clear
98 °F
56 °F
0%
16%
Monday
Jul 1

Clear
100 °F
55 °F
0%
17%
Tuesday
Jul 2

Clear
101 °F
52 °F
0%
13%
Wednesday
Jul 3

Clear
103 °F
57 °F
0%
13%
Thursday
Jul 4

Clear
100 °F
60 °F
0%
8%
Friday
Jul 5

Clear
104 °F
54 °F
0%
9%
Saturday
Jul 6

Clear
102 °F
59 °F
0%
7%
Sunday
Jul 7

Clear
99 °F
53 °F
0%
8%
Monday
Jul 8

Clear
107 °F
58 °F
0%
7%

Temperature 8-14 Day Outlook



Precipitation 8-14 Day Outlook






About Us
Contact Us
Site Map
Search Site
Advertise With Us
   
Berryessa.USLakes.info
THE LAKE BERRYESSA WEBSITE

Copyright 2024, Lakes Online
Privacy    |    Legal